Torna al catalogo

DELTA 1 R/B

AttivoHEO
NORAD 575·ROCKET BODY·🇺🇸 United States

Lanciato May 7, 1963 da Cape Canaveral Space Force Station

Loading…

Prossimi Passaggi (prossime 24 ore)

TLE

AggiornatoSource: Space-Track

Epoca: Sep 14, 2026, 19:32 UTC

1 00575U 63013B   26257.81428638  .00000000  00000-0  10336-3 0  9998
2 00575  42.7588 190.6807 4004039 324.7041  24.8633  6.40291196481732

Traccia DELTA 1 R/B in tempo reale con AllMySat

Download on the App Store